Change the Weather History Date:

Tuesday, January 28, 2014

  Actual Average Record
Temperature  
Mean Temperature 78 °F -  
Max Temperature 91 °F 86 °F 95 °F (2009)
Min Temperature 65 °F 64 °F 51 °F (2015)
Cooling Degree Days 13    
Growing Degree Days 28 (Base 50)    
Moisture  
Dew Point 68 °F    
Average Humidity 84    
Maximum Humidity 100    
Minimum Humidity 43    
Precipitation  
Precipitation 0.00 in - - ()
Sea Level Pressure  
Sea Level Pressure 29.96 in    
Wind  
Wind Speed 6 mph ()    
Max Wind Speed 14 mph    
Max Gust Speed -    
Visibility 4.8 miles    
Events Fog    
Averages and records for this station are not official NWS values.
T = Trace of Precipitation, MM = Missing Value Source: Averaged Metar Reports

Daily Weather History Graph

Daily Weather History Graph

Search for Another Location

Airport or City:

Trip Planner

Search our weather history database for the weather conditions in past years. The results will help you decide how hot, cold, wet, or windy it might be!

Date:

Astronomy

Jan. 28, 2014 Rise Set
Actual Time 6:36 AM CST 5:46 PM CST
Civil Twilight 6:13 AM CST 6:10 PM CST
Nautical Twilight 5:46 AM CST 6:36 PM CST
Astronomical Twilight 5:20 AM CST 7:03 PM CST
Moon 4:13 AM CST (1/28) 3:40 PM CST (1/28)
Length of Visible Light 11h 56m
Length of Day
11h 10m
Waning Crescent, 7% of the Moon is Illuminated
Jan 28
Waning Crescent
Jan 30
New
Feb 6
First Quarter
Feb 14
Full
Feb 22
Last Quarter

Hourly Weather History & Observations

Time (CST) Temp. Heat Index Dew Point Humidity Pressure Visibility Wind Dir Wind Speed Gust Speed Precip Events Conditions
12:47 AM 68.0 °F - 64.4 °F 88% 29.93 in 7.0 mi ESE 6.9 mph - N/A   Clear
1:47 AM 68.0 °F - 64.4 °F 88% 29.92 in 7.0 mi ESE 6.9 mph - N/A   Clear
2:50 AM 68 °F - 67 °F 95% 29.93 in 3 mi SE 2.2 mph - -  
2:51 AM 66.2 °F - 64.4 °F 94% 29.96 in 7.0 mi ESE 5.8 mph - N/A   Clear
3:49 AM 66.2 °F - 66.2 °F 100% 29.90 in 7.0 mi ESE 8.1 mph - N/A   Clear
4:49 AM 66.2 °F - 66.2 °F 100% 29.90 in 7.0 mi SE 8.1 mph - N/A   Clear
5:50 AM 66 °F - 65 °F 94% 29.93 in 3 mi SE 2.2 mph - -   Mostly Cloudy
5:54 AM 64.4 °F - 64.4 °F 100% 29.92 in 7.0 mi ESE 4.6 mph - N/A   Clear
6:17 AM 66.2 °F - 66.2 °F 100% 29.94 in 5.0 mi SE 5.8 mph - N/A   Mostly Cloudy
6:48 AM 66.2 °F - 66.2 °F 100% 29.95 in 2.0 mi ESE 6.9 mph - N/A   Mist
7:04 AM 68.0 °F - 66.2 °F 94% 29.96 in 0.5 mi SE 6.9 mph - N/A Fog Fog
7:44 AM 68.0 °F - 68.0 °F 100% 29.97 in 0.2 mi SE 5.8 mph - N/A Fog Fog
8:01 AM 68.0 °F - 68.0 °F 100% 29.98 in 0.1 mi ESE 6.9 mph - N/A Fog Fog
8:29 AM 69.8 °F - 68.0 °F 94% 29.99 in 0.2 mi ESE 5.8 mph - N/A Fog Fog
8:48 AM 69.8 °F - 69.8 °F 100% 30.01 in 0.5 mi SE 4.6 mph - N/A Fog Fog
8:50 AM 70 °F - 70 °F 98% 30.01 in 3 mi SE 2.2 mph - -   Mist
9:06 AM 69.8 °F - 69.8 °F 100% 30.01 in 0.8 mi North 6.9 mph - N/A   Overcast
9:25 AM 69.8 °F - 69.8 °F 100% 30.02 in 1.0 mi SE 3.5 mph - N/A   Overcast
9:45 AM 71.6 °F - 71.6 °F 100% 30.02 in 2.0 mi ESE 5.8 mph - N/A   Overcast
10:22 AM 73.4 °F - 73.4 °F 100% 30.02 in 3.0 mi SE 5.8 mph - N/A   Overcast
10:43 AM 75.2 °F - 69.8 °F 83% 30.01 in 4.0 mi SSE 6.9 mph - N/A   Overcast
11:29 AM 78.8 °F - 68.0 °F 69% 29.99 in 6.0 mi SE 9.2 mph - N/A   Mostly Cloudy
11:44 AM 80.6 °F 83.2 °F 68.0 °F 65% 30.00 in 7.0 mi SE 11.5 mph - N/A   Mostly Cloudy
11:50 AM 81 °F - 73 °F 72% 29.99 in 6 mi SSE 6.7 mph - -   Mostly Cloudy
12:46 PM 86.0 °F 89.4 °F 68.0 °F 55% 29.94 in 7.0 mi SE 11.5 mph - N/A   Mostly Cloudy
1:44 PM 87.8 °F 90.4 °F 66.2 °F 49% 29.90 in 7.0 mi ESE 12.7 mph - N/A   Mostly Cloudy
2:43 PM 89.6 °F 91.1 °F 64.4 °F 43% 29.89 in 7.0 mi ESE 11.5 mph - N/A   Mostly Cloudy
2:50 PM 89 °F - 71 °F 47% 29.90 in 6 mi SE 4.5 mph - -   Mostly Cloudy
3:47 PM 87.8 °F 88.5 °F 62.6 °F 43% 29.89 in 7.0 mi SE 13.8 mph - N/A   Scattered Clouds
4:48 PM 86.0 °F 86.6 °F 62.6 °F 45% 29.89 in 7.0 mi East 9.2 mph - N/A   Scattered Clouds
5:50 PM 80 °F - 74 °F 76% 29.92 in 6 mi NE 6.7 mph - -   Partly Cloudy
5:50 PM 78.8 °F - 69.8 °F 74% 29.92 in 7.0 mi NE 9.2 mph - N/A   Scattered Clouds
6:47 PM 75.2 °F - 69.8 °F 83% 29.93 in 7.0 mi NNE 6.9 mph - N/A   Scattered Clouds
7:41 PM 75.2 °F - 69.8 °F 83% 29.95 in 7.0 mi North 6.9 mph - N/A   Scattered Clouds
8:41 PM 73.4 °F - 69.8 °F 88% 29.99 in 7.0 mi North 5.8 mph - N/A   Scattered Clouds
8:50 PM 75 °F - 73 °F 92% 29.98 in 3 mi NNE 4.5 mph - -   Mostly Cloudy
9:46 PM 75.2 °F - 71.6 °F 89% 29.98 in 7.0 mi ENE 5.8 mph - N/A   Mostly Cloudy
10:44 PM 75.2 °F - 71.6 °F 89% 29.98 in 6.0 mi NE 4.6 mph - N/A   Overcast
11:43 PM 75.2 °F - 71.6 °F 89% 29.98 in 7.0 mi NNE 4.6 mph - N/A   Mostly Cloudy
11:50 PM 75 °F - 74 °F 95% 29.98 in 3 mi NNE 4.5 mph - -   Partly Cloudy